916  
ASUS44 KLIX 030811  
RWRLIX  
NEW ORLEANS REGIONAL WEATHER ROUNDUP  
NATIONAL WEATHER SERVICE NEW ORLEANS LA  
200 AM CST SUN MAR 03 2024  
 
NOTE: "FAIR" INDICATES FEW OR NO CLOUDS BELOW 12,000 FEET WITH NO  
SIGNIFICANT WEATHER AND/OR S TO VISIBILITY
.  
SKY/WX - SKY CONDITION AND SIGNIFICANT WEATHER.  
TMP - AIR TEMPERATURE. DP - DEWPOINT TEMPERATURE.  
RH - RELATIVE HUMIDITY. PRES - PRESSURE.  
HI - HEAT INDEX. WCI - WIND CHILL INDEX.  
 
* THESE STATIONS ARE NOT NWS OR FAA STATIONS AND ARE NOT UNDER  
NWS QUALITY CONTROL.  
 
LAZ038-048-061-063-065>067-069-076-077-030900-  
SOUTHEAST LOUISIANA  
 
CITY SKY/WX TMP DP RH WIND PRES REMARKS
 
N.O. INTL ARPT CLOUDY 64 63 96 E9 30.05F  
N.O. LAKEFRONT CLOUDY 65 62 90 E5 30.06F  
RESERVE* CLOUDY 63 63 100 NE6 30.04F FOG  
SLIDELL CLOUDY 65 62 90 NE3 30.05F  
BATON ROUGE CLOUDY 65 62 90 SE8 30.02F  
BELLE CHASSE* FOG 64 63 94 E3 30.05F VSB 1/2  
GALLIANO* CLOUDY 63 61 93 E5 30.05F FOG  
NEW ROADS* CLOUDY 62 61 97 SW5 30.02F  
GONZALES* CLOUDY 65 64 97 SE5 30.03F FOG  
HAMMOND* CLOUDY 63 63 100 SE6 30.06F  
HOUMA* RAIN 63 63 99 E7 30.05F VSB 1/4  
 

 
 
MSZ070-077-080>082-030900-  
SOUTHERN MISSISSIPPI  
 
CITY SKY/WX TMP DP RH WIND PRES REMARKS
 
MCCOMB CLOUDY 58 58 100 SE6 30.05F FOG  
GULFPORT FOG 64 62 93 SE3 30.06F VSB 1/2  
BILOXI CLOUDY 63 61 94 CALM 30.04F  
PASCAGOULA FOG 62 60 93 CALM 30.07S VSB 1/2  
 

 
 
COASTAL OBSERVATIONS  
LAKE AND NEARSHORE STATIONS  
 
STATION/POSITION TIME SKY/WX TEMP WIND PRES WAVE
 
AIR SEA DIR/SP/G HT/PER  
(UTC) (F) (DEG/KT/KT) (MB) (FT/S)  
WAVELAND YACHT 0730 68 62 100/ 4/ 5 N/A  
GRAND ISLE 0730 62 65 70/ 6/ 8 1017.7  
SOUTHWEST PASS 0730 64 55 50/ 9/ 10 1017.2  
NEW CANAL 0730 63 62 140/ 3/ 6 1018.1  
SHELL BEACH 0730 63 57 70/ 6/ 7 1018.0  
 
OFFSHORE STATIONS  
 
STATION/POSITION TIME SKY/WX TEMP WIND PRES WAVE
 
AIR SEA DIR/SP/G HT/PER  
(UTC) (F) (DEG/KT/KT) (MB) (FT/S)  
64 S DAUPHIN ISL 0750 71 71 110/ 8/ 12 1018.3 2/ 5  
SW PASS ENTRANCE 0700 63 64 N/A 2/ 5  
LA OFFSHORE OIL 0715 64 80/ 10/ 11 1017.1 2  
 

 
 
 
 
CLICK HERE TO GO TO PREVIOUS BULLETINS.

The Nexlab LA Page
The Nexlab MS Page Main Text Page